Regional Weather Roundup
Issued by NWS

Home | Current Version | Previous Version | Text Only | Print | Product List | Glossary Off
Versions: 1 2 3 4 5 6 7 8 9 10 11 12 13 14 15 16 17 18 19 20 21 22 23 24 25 26 27 28 29 30 31 32 33 34 35 36 37 38 39 40 41 42 43 44 45 46 47 48 49 50

699
ASUS43 KDTX 091301
RWRMI
MICHIGAN HOURLY REGIONAL WEATHER ROUNDUP
NATIONAL WEATHER SERVICE DETROIT/PONTIAC MI
800 AM EST TUE FEB 09 2016

NOTE: "FAIR" INDICATES FEW OR NO CLOUDS BELOW 12,000 FEET WITH NO
SIGNIFICANT WEATHER AND/OR OBSTRUCTION TO VISIBILITY.

MIZ047>049-052>055-059>063-066>070-074>076-081>083-091400-
SOUTHEAST LOWER MICHIGAN

CITY           SKY/WX    TMP DP  RH WIND       PRES   REMARKS
ADRIAN         LGT SNOW  29  27  92 W8        29.59R FOG     WCI  21
ALMA           CLOUDY    27  24  87 NW16      29.60R WCI  15
ANN ARBOR      FLURRIES  30  27  88 NW9       29.56R WCI  22
BAD AXE        LGT SNOW  28  27  94 NW16G25   29.50R WCI  17
CARO           CLOUDY    28  27  93 NW13      29.53R WCI  18
DETROIT CITY   LGT SNOW  31  30  96 W7        29.54R VSB 3/4 WCI  24
DETROIT        LGT SNOW  31  30  96 W8        29.56R VSB 3/4 WCI  23
FLINT          LGT SNOW  29  24  82 NW10      29.56R VSB 3/4 WCI  20
GROSSE ILE     LGT SNOW  30  28  93 SW8       29.55R VSB 3/4 WCI  23
HILLSDALE      CLOUDY    29  29 100 W8        29.57R FOG     WCI  21
HOWELL         LGT SNOW  29  28  94 NW9       29.56R WCI  20

CITY           SKY/WX    TMP DP  RH WIND       PRES   REMARKS
JACKSON        LGT SNOW  29  25  85 NW12      29.58R FOG     WCI  19
LAMBERTVILLE   LGT SNOW  28  27  93 SW7       29.59S WCI  21
LANSING        LGT SNOW  27  23  85 NW13      29.60R FOG     WCI  16
LAPEER         LGT SNOW  28  28  97 NW9G18    29.53R VSB 1   WCI  19
MASON          LGT SNOW  28  26  92 NW9       29.58R WCI  19
MONROE         SNOW      30  28  93 W10       29.57R VSB 1/2 WCI  21
MT. CLEMENS    LGT SNOW  31  30  96 NW9       29.51R WCI  23
PONTIAC        LGT SNOW  28  25  88 NW16G23   29.53R VSB 3/4 WCI  16
PORT HOPE        N/A     30  29  96 NW20G28   29.47R WCI  17
PORT HURON     LGT SNOW  30  30 100 W6        29.51R VSB 3/4 WCI  24
TRI CITIES     LGT SNOW  28  23  81 NW12      29.58R VSB 3/4 WCI  18
MIDLAND        LGT SNOW  27  24  91 W8        29.58R WCI  18
TROY           LGT SNOW  32  30  93 W8        29.55R WCI  25
SAGINAW HB     LGT SNOW  28  28 100 W16       29.56S VSB 3/4 WCI  17
$$
MIZ043>046-050>051-056>058-064>065-071>073-077>080-091400-
SOUTHWEST LOWER MICHIGAN

CITY           SKY/WX    TMP DP  RH WIND       PRES   REMARKS
BATTLE CREEK   CLOUDY    27  23  85 NW13      29.62R WCI  16
BENTON HARBOR  LGT SNOW  28  22  78 NW14G22   29.69R WCI  17
BIG RAPIDS     CLOUDY    24  22  93 NW13      29.62R WCI  12
COLDWATER      CLOUDY    29  27  89 NW9       29.60R WCI  21
FREMONT        CLOUDY    24  20  85 N15       29.66R WCI  12
HOLLAND        CLOUDY    27  20  75 NW12G18   29.67R WCI  17
GRAND RAPIDS   CLOUDY    26  21  81 NW12      29.64R WCI  16
IONIA          CLOUDY    26  23  87 W14G20    29.61R WCI  14
KALAMAZOO      CLOUDY    27  22  81 NW12      29.64R WCI  17
LUDINGTON      CLOUDY    23  19  85 NW10      29.70R WCI  13
MARSHALL       CLOUDY    29  25  83 NW8       29.59R WCI  21
MOUNT PLEASANT CLOUDY    26  21  79 NW10G17   29.59S WCI  17
MUSKEGON       CLOUDY    25  18  74 NW15G24   29.68R WCI  13
SOUTH HAVEN    CLOUDY    28  23  81 N14G22    29.68R WCI  17
$$
MIZ016>042-091400-
NORTHERN LOWER MICHIGAN

CITY           SKY/WX    TMP DP  RH WIND       PRES   REMARKS
ALPENA         FLURRIES  26  22  84 NW12G20   29.55R WCI  16
BEAVER ISLAND  CLOUDY    22  19  87 NW14G20   29.66R WCI   9
BELLAIRE       CLOUDY    25  20  81 N6        29.65R WCI  18
CADILLAC       CLOUDY    23  20  89 NW12      29.59S WCI  12
CHARLEVOIX     CLOUDY    24  21  87 NW12G17   29.68R WCI  13
FRANKFORT      CLOUDY    24  20  84 NW9       29.68R WCI  15
GAYLORD        CLOUDY    23  19  85 NW9G20    29.57R WCI  13
GRAYLING       CLOUDY    24  20  87 NW12G18   29.58S WCI  12
HARBOR SPRINGS CLOUDY    24  19  83 W8        29.63R WCI  15
HOUGHTON LAKE  FLURRIES  23  20  88 NW12G22   29.57S WCI  12
MANISTEE       CLOUDY    25  18  74 N14       29.69R WCI  13
OSCODA         LGT SNOW  26  24  93 NW16      29.51S VSB 3/4 WCI  14
PELLSTON       CLOUDY    24  20  84 NW12      29.62R WCI  13
ROGERS CITY    LGT SNOW  26  24  90 NW12      29.57S VSB 1   WCI  16
TRAVERSE CITY  CLOUDY    26  20  77 NW13      29.65R WCI  15
$$
MIZ007>008-015-091400-
EASTERN UPPER MICHIGAN

CITY           SKY/WX    TMP DP  RH WIND       PRES   REMARKS
KINROSS        CLOUDY    25  25 100 NW14      29.58R WCI  13
MACKINAC ISLAN LGT SNOW  24  24 100 NW9       29.60R WCI  15
NEWBERRY       CLOUDY    23  22  97 N8G24     29.62R WCI  14
S. S. MARIE    LGT SNOW  28  25  88 NW6       29.58S FOG     WCI  22
$$
MIZ004>006-011>014-085-091400-
CENTRAL UPPER MICHIGAN

CITY           SKY/WX    TMP DP  RH WIND       PRES   REMARKS
MANISTIQUE     CLOUDY    20  14  77 N18G28    29.66S WCI   5
ESCANABA       CLOUDY    16   7  67 NW13      29.73S WCI   2
MENOMINEE      CLOUDY    14   5  67 NW10G18   29.77R WCI   1
SAWYER-GWINN   LGT SNOW  12   7  79 N20G25    29.71R WCI  -6
$$
MIZ001>003-009>011-084-091400-
WESTERN UPPER MICHIGAN

CITY           SKY/WX    TMP DP  RH WIND       PRES   REMARKS
IRON MOUNTAIN  LGT SNOW  11   3  70 NW17G23   29.75R WCI  -6
HOUGHTON       HAZE      10   4  76 N17       29.82R VSB 1   WCI  -8
COPPER HARBOR    N/A     16  12  84 NE23G31   29.82R WCI  -2
IRONWOOD       CLOUDY    10   9  92 N12G21    29.86R VSB 1   WCI  -4
$$

ABBREVIATIONS USED IN REMARKS
   TC - TEMPERATURE IN CELSIUS
  WCI - WIND CHILL INDEX
   HX - HEAT INDEX
  VSB - VISIBILITY





USA.gov is the U.S. government's official web portal to all federal, state and local government web resources and services.